Flag for Germany

Past Weather in Munich, Bavaria, Germany — Yesterday and Last 2 Weeks

Now
63 °F

Sunny.


Feels Like: 63 °F
Forecast: 79 / 56 °F
Wind: 6 mph from Southwest

Location: Oberpfaffenhofen

Current Time: Jul 8, 2020 at 9:42:10 am

Latest Report: Jul 8, 2020 at 8:50 am


Visibility: 10 mi

Pressure: 30.09 "Hg (28.28 "Hg at 526m altitude)

Humidity: 64%

Dew Point: 50 °F

Location of MunichLocation

Past Weather in Munich — Graph

°F

Munich Temperature Yesterday

Maximum temperature yesterday: 68 °F (at 3:20 pm)
Minimum temperature yesterday: 45 °F (at 2:50 am)
Average temperature yesterday: 58 °F

High & Low Weather Summary for the Past Weeks

 TemperatureHumidityPressure
High82 °F (Jul 1, 3:50 pm)100% (Jun 24, 12:20 am)30.27 "Hg (Jun 24, 12:20 am)
Low45 °F (Jul 7, 2:50 am)35% (Jul 7, 2:50 pm)29.86 "Hg (Jul 1, 2:50 pm)
Average64 °F72%30.06 "Hg
* Reported Jun 23 8:20 am — Jul 8 8:20 am, Munich. Weather by CustomWeather, © 2020

Note: Actual official high and low records may vary slightly from our data, if they occured in-between our weather recording intervals... More about our weather records

Munich Weather History for the Previous 24 Hours

Scroll right to see more
 ConditionsComfort  
Time TempWeatherWind HumidityBarometerVisibility
8:20 am
Wed, Jul 8
61 °FSunny.9 mph68%30.09 "Hg10 mi
7:50 am59 °FSunny.9 mph72%30.09 "Hg10 mi
7:20 am55 °FSunny.9 mph82%30.09 "Hg10 mi
6:50 am54 °FSunny.9 mph82%30.07 "Hg10 mi
6:20 am50 °FSunny.8 mph88%30.07 "HgN/A
5:50 am48 °FSunny.7 mph87%30.07 "HgN/A
5:20 am46 °FClear.7 mph93%30.07 "HgN/A
4:50 am48 °FClear.1 mph87%30.07 "HgN/A
4:20 am46 °FClear.No wind93%30.07 "HgN/A
3:50 am48 °FClear.2 mph87%30.07 "HgN/A
3:20 am48 °FClear.3 mph87%30.07 "HgN/A
2:50 am46 °FClear.3 mph87%30.09 "HgN/A
2:20 am48 °FClear.No wind87%30.09 "HgN/A
1:50 am50 °FClear.2 mph82%30.09 "HgN/A
1:20 am50 °FClear.2 mph82%30.09 "HgN/A
12:50 am48 °FClear.3 mph94%30.09 "HgN/A
12:20 am48 °FClear.2 mph87%30.09 "HgN/A
11:50 pm
Tue, Jul 7
50 °FClear.3 mph88%30.09 "HgN/A
11:20 pm50 °FClear.3 mph82%30.09 "HgN/A
10:50 pm50 °FClear.2 mph88%30.09 "HgN/A
10:20 pm54 °FClear.2 mph77%30.09 "HgN/A
9:50 pm55 °FClear.3 mph72%30.09 "HgN/A
9:20 pm63 °FClear.2 mph49%30.09 "HgN/A
8:50 pm63 °FSunny.6 mph52%30.09 "HgN/A
8:20 pm64 °FSunny.6 mph46%30.09 "Hg10 mi
7:50 pm66 °FPassing clouds.5 mph40%30.09 "HgN/A
7:20 pm68 °FPassing clouds.3 mph40%30.09 "HgN/A
6:50 pm68 °FPassing clouds.6 mph38%30.09 "HgN/A
6:20 pm68 °FSunny.3 mph38%30.09 "Hg10 mi
5:50 pm68 °FPassing clouds.6 mph38%30.09 "HgN/A
5:20 pm68 °FPassing clouds.7 mph38%30.09 "HgN/A
4:50 pm68 °FSunny.5 mph40%30.12 "Hg10 mi
4:20 pm66 °FPassing clouds.7 mph40%30.12 "HgN/A
3:20 pm68 °FSunny.3 mph40%30.12 "Hg10 mi
2:50 pm66 °FSunny.3 mph35%30.12 "Hg10 mi
2:20 pm66 °FPassing clouds.6 mph37%30.12 "HgN/A
1:50 pm66 °FSunny.3 mph40%30.15 "Hg10 mi
1:20 pm64 °FSunny.3 mph40%30.15 "Hg10 mi
12:50 pm64 °FSunny.7 mph46%30.15 "Hg10 mi
12:20 pm61 °FScattered clouds.3 mph45%30.15 "HgN/A
11:50 am63 °FScattered clouds.3 mph45%30.15 "HgN/A
11:20 am63 °FPassing clouds.3 mph52%30.15 "HgN/A
10:50 am61 °FPassing clouds.5 mph55%30.18 "HgN/A
10:20 am59 °FPassing clouds.3 mph51%30.18 "HgN/A
9:50 am59 °FPassing clouds.1 mph51%30.18 "HgN/A
9:20 am59 °FPassing clouds.2 mph55%30.18 "HgN/A
Weather by CustomWeather, © 2020

See weather overview